Weather History for London-Corbin, KY

Change the Weather History Date:

Saturday, January 7, 2012

  Actual Average Record
Temperature  
Mean Temperature 47 °F 35 °F  
Max Temperature 60 °F 44 °F 68 °F (2008)
Min Temperature 33 °F 26 °F -4 °F (1970)
Degree Days  
Heating Degree Days 18 30  
Month to date heating degree days 196 206  
Since 1 July heating degree days 1763 1858  
Cooling Degree Days 0 0  
Month to date cooling degree days 0 0  
Year to date cooling degree days 0 0  
Moisture  
Dew Point 43 °F    
Average Humidity 63    
Maximum Humidity 83    
Minimum Humidity 42    
Precipitation  
Precipitation T in 0.11 in 1.85 in (1998)
Month to date precipitation 0.03 0.81  
Year to date precipitation 0.03 0.81  
Sea Level Pressure  
Sea Level Pressure 29.98 in    
Wind  
Wind Speed 6 mph (WSW)    
Max Wind Speed 13 mph    
Max Gust Speed 18 mph    
Visibility 10 miles    
Events      
T = Trace of Precipitation, MM = Missing Value Source: NWS Daily Summary

Daily Weather History Graph

Daily Weather History Graph

Search for Another Location

Airport:

Trip Planner

Search our weather history database for the weather conditions in past years. The results will help you decide how hot, cold, wet, or windy it might be!

Date:

Astronomy

Jan. 07, 2012 Rise Set
Actual Time 7:50 AM EST 5:34 PM EST
Civil Twilight 7:21 AM EST 6:03 PM EST
Nautical Twilight 6:49 AM EST 6:35 PM EST
Astronomical Twilight 6:17 AM EST 7:07 PM EST
Moon 4:18 PM EST (1/7) 6:20 AM EST (1/7)
Length of Visible Light 10h 42m
Length of Day
9h 44m
Waxing Gibbous, 97% of the Moon is Illuminated
Jan 7
Waxing Gibbous
Jan 9
Full
Jan 16
Last Quarter
Jan 23
New
Jan 30
First Quarter

Hourly Weather History & Observations

Time (EST) Temp. Windchill Dew Point Humidity Pressure Visibility Wind Dir Wind Speed Gust Speed Precip Events Conditions
12:53 AM 52.0 °F - 42.1 °F 69% 29.92 in 10.0 mi SW 4.6 mph - N/A   Mostly Cloudy
1:01 AM 53.6 °F - 42.8 °F 67% 29.92 in 10.0 mi SW 5.8 mph - N/A   Overcast
1:29 AM 53.6 °F - 42.8 °F 67% 29.92 in 10.0 mi SSW 6.9 mph - N/A   Overcast
1:53 AM 54.0 °F - 44.1 °F 69% 29.91 in 10.0 mi SW 6.9 mph - N/A   Overcast
2:53 AM 55.0 °F - 45.0 °F 69% 29.90 in 10.0 mi SW 8.1 mph - N/A   Overcast
3:15 AM 55.4 °F - 46.4 °F 72% 29.92 in 10.0 mi SW 6.9 mph 17.3 mph 0.00 in   Overcast
3:44 AM 55.4 °F - 46.4 °F 72% 29.92 in 10.0 mi SW 6.9 mph - 0.00 in   Overcast
3:53 AM 55.9 °F - 46.9 °F 72% 29.90 in 10.0 mi SW 8.1 mph - 0.00 in   Overcast
4:03 AM 55.4 °F - 46.4 °F 72% 29.91 in 10.0 mi SW 10.4 mph - N/A   Overcast
4:42 AM 55.4 °F - 46.4 °F 72% 29.91 in 10.0 mi SW 8.1 mph - N/A   Overcast
4:53 AM 55.0 °F - 46.9 °F 74% 29.90 in 10.0 mi SW 9.2 mph - N/A   Mostly Cloudy
5:04 AM 53.6 °F - 46.4 °F 77% 29.91 in 10.0 mi SW 8.1 mph - N/A   Mostly Cloudy
5:35 AM 53.6 °F - 46.4 °F 77% 29.92 in 10.0 mi SW 6.9 mph - N/A   Overcast
5:53 AM 54.0 °F - 46.9 °F 77% 29.91 in 10.0 mi SW 5.8 mph - N/A   Overcast
6:28 AM 53.6 °F - 46.4 °F 77% 29.93 in 10.0 mi SSW 4.6 mph - N/A   Mostly Cloudy
6:53 AM 54.0 °F - 48.0 °F 80% 29.93 in 10.0 mi SSW 4.6 mph - N/A   Overcast
7:50 AM 53.6 °F - 48.2 °F 82% 29.95 in 10.0 mi SW 5.8 mph - N/A   Overcast
7:53 AM 54.0 °F - 48.0 °F 80% 29.95 in 10.0 mi SW 5.8 mph - N/A   Overcast
8:53 AM 54.0 °F - 48.9 °F 83% 29.97 in 10.0 mi SW 4.6 mph - N/A   Overcast
9:36 AM 55.4 °F - 48.2 °F 77% 29.99 in 10.0 mi SW 5.8 mph - N/A   Overcast
9:53 AM 55.9 °F - 50.0 °F 80% 30.00 in 10.0 mi West 8.1 mph - N/A   Overcast
10:53 AM 55.9 °F - 48.9 °F 77% 30.01 in 10.0 mi WNW 6.9 mph - N/A   Overcast
11:13 AM 55.4 °F - 48.2 °F 77% 30.02 in 10.0 mi WNW 9.2 mph - N/A   Overcast
11:53 AM 57.9 °F - 48.9 °F 72% 30.00 in 10.0 mi West 6.9 mph - N/A   Overcast
12:13 PM 57.2 °F - 48.2 °F 72% 30.00 in 10.0 mi SW 10.4 mph - N/A   Mostly Cloudy
12:24 PM 59.0 °F - 46.4 °F 63% 29.99 in 10.0 mi WSW 11.5 mph - N/A   Mostly Cloudy
12:53 PM 60.1 °F - 46.9 °F 62% 29.98 in 10.0 mi WSW 11.5 mph - N/A   Mostly Cloudy
1:53 PM 57.9 °F - 46.0 °F 65% 29.98 in 10.0 mi NW 11.5 mph - N/A   Overcast
2:53 PM 55.4 °F - 46.4 °F 72% 30.00 in 10.0 mi WNW 8.1 mph - N/A   Overcast
3:53 PM 55.9 °F - 42.1 °F 60% 30.01 in 10.0 mi WNW 10.4 mph - N/A   Overcast
4:53 PM 53.6 °F - 37.4 °F 54% 30.04 in 10.0 mi NNW 6.9 mph - N/A   Partly Cloudy
5:53 PM 51.1 °F - 30.9 °F 46% 30.05 in 10.0 mi North 4.6 mph - N/A   Clear
6:53 PM 48.9 °F - 26.1 °F 41% 30.07 in 10.0 mi Calm Calm - N/A   Clear
7:53 PM 42.1 °F 40.2 °F 28.0 °F 58% 30.10 in 10.0 mi North 3.5 mph - N/A   Clear
8:53 PM 41.0 °F 39.0 °F 28.0 °F 60% 30.12 in 10.0 mi North 3.5 mph - N/A   Clear
9:53 PM 37.0 °F - 27.0 °F 67% 30.14 in 10.0 mi Calm Calm - N/A   Clear
10:53 PM 35.1 °F 32.2 °F 27.0 °F 72% 30.16 in 10.0 mi North 3.5 mph - N/A   Clear
11:53 PM 33.1 °F - 27.0 °F 78% 30.17 in 10.0 mi Calm Calm - N/A   Clear